[[{"header":{"parameterUnit":"m.s-1","parameterCategory":1,"la1":30.2991,"la2":30.254,"lo1":-89.0895,"lo2":-89.0444,"dy":0.0017,"dx":0.0017,"nx":28,"ny":28,"refTime":"2024-07-24T09:00:00:Z","depth":0,"parameterNumber":2,"parameterNumberName":"U-component_of_WINDS"},"data":[0,0,0,0,0,0,0,0,0,0,0,0,0,0,0,0,0,0,0,0,0,0,0,0,0,0,0,0,0,0,0,0,0,0,0,0,0,0,0,0,0,0,0,0,0,0,0,0,0,0,0,0,0,0,0,0,0,0,1.9914,1.9915,0,1.9929,1.9929,1.993,1.9886,1.9885,1.9883,1.9882,1.9899,1.99,1.9902,0,0,0,0,0,0,0,0,0,0,0,0,0,1.9848,1.985,1.9914,1.9915,1.9915,1.9929,1.9929,1.993,1.9886,1.9885,1.9883,1.9881,1.9898,1.99,1.9902,0,0,0,0,0,0,0,0,0,0,0,0,0,1.9872,1.985,1.9914,1.9895,1.9893,1.9929,1.9929,1.993,1.9887,1.9885,1.9882,1.9881,1.9898,1.99,1.9903,1.9959,0,0,1.991,1.9911,0,0,0,0,0,0,0,0,1.987,1.9874,1.9897,1.9896,1.9894,1.9904,1.9912,1.9939,1.9887,1.9889,1.9882,1.988,1.9902,1.9904,1.9911,1.9959,1.996,1.9911,1.9912,1.9913,1.9914,0,0,0,0,0,0,0,1.9869,1.9873,1.992,1.9898,1.9896,1.9885,1.9886,1.9917,1.9907,1.9889,1.9886,1.9888,1.9901,1.9909,1.9912,1.996,1.991,1.9913,1.9914,1.9915,2.0052,2.0054,0,0,0,0,0,0,1.987,1.9872,1.992,1.9921,1.9877,1.9888,1.9889,1.9903,1.9906,1.9905,1.989,1.9886,1.9906,1.9909,1.9912,1.9975,1.9913,1.9916,1.9917,2.005,2.0052,2.0054,0,0,0,0,0,0,1.9868,1.9874,1.9919,1.9896,1.99,1.9891,1.9907,1.9904,1.9912,1.9907,1.9905,1.99,1.9904,1.9908,1.9946,1.9975,1.9917,1.9919,2.0047,2.005,2.0053,2.0103,0,0,0,0,0,0,1.9867,1.9874,1.9895,1.9896,1.9902,1.9954,1.9909,1.9906,1.9916,1.9912,1.9916,1.9915,1.9903,1.9943,1.9949,1.9977,1.9921,2.0045,2.0049,2.0052,2.0099,2.0108,2.0115,0,0,0,0,0,1.9865,1.991,1.9897,1.9903,1.9928,1.9955,1.9959,1.9944,1.9919,1.994,1.9936,1.9915,1.9972,1.9947,1.9954,1.9983,2.0043,2.0047,2.0052,2.0095,2.0106,2.0115,0,0,0,0,0,0,1.9914,1.991,1.9895,1.9942,1.9949,1.9948,1.9974,1.9956,1.9971,1.9966,1.9947,1.9948,1.9989,1.9991,1.9964,2.0036,2.0003,2.0009,2.0033,2.0043,2.0051,2.0049,1.9923,0,0,0,0,0,1.993,1.9952,1.9948,1.999,1.9994,1.9984,1.9995,1.9982,1.9989,1.9992,1.9992,1.9999,2.0018,2.0031,2.0049,2.01,2.0099,2.0123,2.0131,2.0138,2.0143,2.0166,2.0176,2.007,2.007,2.007,0,0,1.9964,1.9965,1.998,2.0,2.0004,2.0026,1.9986,2.0013,2.0029,1.9997,2.0031,2.0031,2.0038,2.0082,2.0101,2.0084,2.0172,2.0144,2.0149,2.015,2.0172,2.0182,2.0191,2.0073,2.0073,2.0072,0,0,2.0037,2.0041,2.0074,2.0078,2.0084,2.0077,2.0085,2.0086,2.0084,2.0119,2.0094,2.0114,2.0148,2.0153,2.016,2.0233,2.0213,2.024,2.0281,2.0304,2.0313,2.032,2.0343,2.0352,2.0245,2.0245,2.0245,0,2.0078,2.0111,2.0094,2.0121,2.0129,2.01,2.0133,2.0139,2.0151,2.0157,2.0138,2.0178,2.0182,2.0225,2.0242,2.025,2.0257,2.0238,2.0313,2.032,2.0327,2.0348,2.0357,2.0248,2.0248,2.0248,2.0247,0,2.016,2.0183,2.0209,2.0219,2.0231,2.0262,2.0249,2.0263,2.025,2.0244,2.0278,2.0281,2.0297,2.0307,2.0296,2.0348,2.0337,2.0316,2.0281,2.034,2.036,2.0368,2.0253,2.0251,2.0251,2.025,0,0,2.0263,2.0262,2.0272,2.0275,2.0279,2.0296,2.0325,2.034,2.0351,2.036,2.0382,2.0411,2.0391,2.0399,2.0388,2.0409,2.0462,2.0385,2.0385,2.0396,2.0517,2.053,2.054,2.045,2.0451,2.0453,2.0515,0,2.0332,2.0379,2.0364,2.0411,2.0431,2.0403,2.0427,2.0432,2.0428,2.0444,2.0439,2.0458,2.0432,2.0436,2.0456,2.0452,2.0486,2.0447,2.0468,2.0469,2.0464,2.0551,2.0566,2.0625,2.0523,2.0525,2.0525,0,2.0418,2.0428,2.0477,2.0475,2.0483,2.0505,2.0516,2.0532,2.0537,2.0532,2.054,2.0524,2.0551,2.0518,2.0554,2.0528,2.0536,2.0535,2.0537,2.0536,2.0499,2.055,2.0643,2.0651,2.0538,2.0537,2.0536,0,2.0484,2.0511,2.0543,2.0547,2.0546,2.0562,2.0562,2.0565,2.0574,2.0584,2.0589,2.0604,2.061,2.0621,2.0609,2.0587,2.0645,2.0612,2.064,2.0641,2.0652,2.0651,2.0745,2.0662,2.0662,2.0662,2.0662,0,2.0561,2.0591,2.0572,2.0591,2.0624,2.0607,2.0639,2.0637,2.0639,2.0657,2.0635,2.0653,2.0636,2.0652,2.0643,2.0672,2.0676,2.0672,2.0669,2.0672,2.0672,2.0675,2.067,2.0664,2.0664,2.0663,2.0663,0,2.0639,2.0628,2.066,2.0656,2.0656,2.068,2.0676,2.0694,2.0688,2.071,2.0715,2.0705,2.0722,2.0711,2.0729,2.0723,2.076,2.0753,2.0758,2.0755,2.0782,2.0779,2.0879,2.0891,2.0804,2.0804,2.0805,0,2.0687,2.0709,2.0707,2.0717,2.0718,2.0735,2.0743,2.0727,2.0737,2.0743,2.0759,2.0774,2.0785,2.0814,2.0808,2.0821,2.0812,2.0847,2.0814,2.0816,2.0809,2.0806,2.0807,2.0852,2.0853,2.0854,2.0855,0,2.0772,2.0765,2.0778,2.0788,2.0798,2.0806,2.0812,2.0821,2.0805,2.0817,2.0833,2.0842,2.0859,2.0873,2.0884,2.0885,2.0866,2.0865,2.0872,2.0874,2.0875,2.0872,2.0773,2.0863,2.0862,2.0861,2.0861,2.0861,2.0835,2.0852,2.0852,2.0866,2.0869,2.0874,2.0889,2.0884,2.0897,2.0909,2.0899,2.0918,2.0921,2.0933,2.0935,2.095,2.0936,2.0946,2.0948,2.095,2.0953,2.0875,2.0952,2.0952,2.0952,2.0952,2.0952,0,2.0916,2.0914,2.0927,2.0935,2.0946,2.0928,2.0933,2.0943,2.096,2.0963,2.0974,2.0992,2.1005,2.1001,2.1012,2.1025,2.1017,2.1028,2.1026,2.1025,2.0966,2.0958,2.1034,2.1034,2.1034,2.1034,2.1034,2.1034,2.0959,2.0986,2.0979,2.1006,2.1005,2.1022,2.1026,2.1031,2.1033,2.1053,2.1064,2.106,2.106,2.1071,2.1083,2.1081,2.1085,2.1099,2.1094,2.1038,2.103,2.1022,2.1014,2.1101,2.1101,2.1152,2.1152,2.1153]},{"header":{"parameterUnit":"m.s-1","parameterCategory":1,"la1":30.2991,"la2":30.254,"lo1":-89.0895,"lo2":-89.0444,"dy":0.0017,"dx":0.0017,"nx":28,"ny":28,"refTime":"2024-07-24T09:00:00:Z","depth":0,"parameterNumber":3,"parameterNumberName":"V-component_of_WINDS"},"data":[0,0,0,0,0,0,0,0,0,0,0,0,0,0,0,0,0,0,0,0,0,0,0,0,0,0,0,0,0,0,0,0,0,0,0,0,0,0,0,0,0,0,0,0,0,0,0,0,0,0,0,0,0,0,0,0,0,0,2.0696,2.0698,0,2.0856,2.0858,2.0859,2.089,2.0889,2.0887,2.0886,2.1045,2.105,2.1056,0,0,0,0,0,0,0,0,0,0,0,0,0,2.0412,2.0417,2.0696,2.0698,2.07,2.0855,2.0858,2.086,2.089,2.0889,2.0887,2.0886,2.1043,2.105,2.1056,0,0,0,0,0,0,0,0,0,0,0,0,0,2.0549,2.0418,2.0695,2.0734,2.0739,2.0855,2.0858,2.086,2.089,2.0889,2.0887,2.0885,2.1041,2.1049,2.1057,2.1144,0,0,2.1082,2.1085,0,0,0,0,0,0,0,0,2.0542,2.056,2.0726,2.0731,2.0737,2.0851,2.0816,2.0955,2.0891,2.0833,2.0886,2.0884,2.0982,2.0994,2.1028,2.1152,2.1159,2.1082,2.1087,2.1091,2.1093,0,0,0,0,0,0,0,2.0532,2.0553,2.0759,2.0729,2.0735,2.0741,2.0759,2.0842,2.0916,2.0838,2.084,2.0859,2.0984,2.1021,2.1032,2.1161,2.1082,2.1089,2.1094,2.1097,2.1363,2.1365,0,0,0,0,0,0,2.0516,2.0545,2.0754,2.0764,2.0633,2.0748,2.0768,2.0816,2.0915,2.0928,2.086,2.086,2.1008,2.1023,2.1038,2.1147,2.1091,2.1098,2.1103,2.136,2.1363,2.1365,0,0,0,0,0,0,2.051,2.0535,2.0747,2.0655,2.0683,2.0755,2.0809,2.082,2.0857,2.0932,2.0945,2.0885,2.1007,2.1027,2.1118,2.1152,2.1102,2.1109,2.1358,2.1361,2.1364,2.1364,0,0,0,0,0,0,2.0502,2.0532,2.0568,2.0656,2.0688,2.0826,2.0812,2.0825,2.0871,2.0872,2.0958,2.097,2.1007,2.1106,2.1126,2.1163,2.1116,2.1355,2.1359,2.1363,2.1362,2.1367,2.1372,0,0,0,0,0,2.0492,2.0561,2.0569,2.0594,2.0734,2.0828,2.0846,2.0888,2.0874,2.0909,2.0957,2.0968,2.1145,2.1115,2.1138,2.1177,2.1353,2.1358,2.1363,2.1359,2.1366,2.1372,0,0,0,0,0,0,2.0473,2.0573,2.0584,2.0684,2.0747,2.0833,2.0879,2.0894,2.0962,2.096,2.1007,2.1026,2.1114,2.1155,2.1119,2.1267,2.1248,2.1258,2.1237,2.1244,2.125,2.1238,2.1122,0,0,0,0,0,2.0481,2.0551,2.0634,2.0714,2.0745,2.0807,2.0849,2.0876,2.0944,2.097,2.1025,2.1088,2.1158,2.1204,2.1272,2.1367,2.1385,2.1406,2.1411,2.1415,2.1423,2.1475,2.1484,2.1382,2.1382,2.1382,0,0,2.0498,2.0561,2.0602,2.0712,2.0764,2.0834,2.0829,2.0904,2.0955,2.0981,2.1071,2.1113,2.1187,2.128,2.1324,2.1316,2.1455,2.1421,2.1424,2.143,2.1481,2.149,2.1499,2.1385,2.1384,2.1384,0,0,2.0564,2.0619,2.0691,2.0744,2.0824,2.0864,2.0882,2.0965,2.0995,2.1086,2.1106,2.1167,2.1287,2.1339,2.1381,2.1464,2.1476,2.1485,2.1513,2.1563,2.1571,2.1578,2.1607,2.1617,2.1493,2.1493,2.1493,0,2.0574,2.0682,2.0726,2.08,2.0847,2.0875,2.0947,2.0996,2.1093,2.1124,2.1115,2.1265,2.1317,2.1422,2.1442,2.1476,2.1495,2.1476,2.1566,2.1574,2.1582,2.161,2.1621,2.1493,2.1493,2.1493,2.1493,0,2.069,2.0764,2.0813,2.0908,2.096,2.1033,2.1086,2.1134,2.1155,2.1196,2.1287,2.135,2.1431,2.1458,2.1479,2.1566,2.1558,2.1557,2.1539,2.1591,2.1619,2.163,2.1494,2.1494,2.1494,2.1494,0,0,2.075,2.0868,2.0885,2.0928,2.1018,2.1075,2.1148,2.1229,2.1268,2.1334,2.1395,2.1496,2.1495,2.1542,2.1569,2.1613,2.1674,2.1606,2.1609,2.1616,2.1772,2.1772,2.1785,2.1682,2.1685,2.1686,2.1766,0,2.0826,2.096,2.1001,2.1112,2.118,2.1206,2.1269,2.133,2.1369,2.1431,2.1474,2.1544,2.1538,2.1567,2.1611,2.1657,2.1706,2.1652,2.1738,2.1741,2.1719,2.1799,2.18,2.1872,2.1777,2.1779,2.178,0,2.0934,2.1003,2.1121,2.1201,2.1231,2.1288,2.1364,2.1424,2.1492,2.1518,2.157,2.1593,2.1668,2.1646,2.1749,2.1711,2.1748,2.1776,2.178,2.179,2.1764,2.181,2.1896,2.1907,2.1797,2.1796,2.1795,0,2.0965,2.1087,2.1174,2.121,2.1305,2.1344,2.1385,2.1452,2.1498,2.1564,2.1594,2.1667,2.1707,2.1763,2.1804,2.1785,2.1903,2.1885,2.1925,2.1924,2.1949,2.1947,2.2042,2.1973,2.1973,2.1973,2.1973,0,2.1046,2.1117,2.1189,2.1242,2.1321,2.1367,2.1444,2.1486,2.1545,2.1605,2.1631,2.1687,2.1739,2.18,2.1833,2.1912,2.193,2.1951,2.1959,2.1949,2.1947,2.1975,2.197,2.1976,2.1975,2.1974,2.1974,0,2.1095,2.1146,2.1242,2.1325,2.1347,2.1402,2.1472,2.1523,2.1563,2.1638,2.1659,2.172,2.1794,2.1841,2.1935,2.1957,2.2044,2.205,2.2021,2.2025,2.2062,2.2058,2.2178,2.2196,2.2115,2.2116,2.2117,0,2.1144,2.1199,2.1288,2.1331,2.1373,2.1442,2.1489,2.1535,2.1582,2.1664,2.1705,2.1781,2.1844,2.196,2.2012,2.2083,2.2091,2.2128,2.2102,2.209,2.2091,2.2087,2.2093,2.2133,2.2133,2.2134,2.2134,0,2.1225,2.1247,2.1315,2.1391,2.1446,2.1508,2.157,2.1603,2.1659,2.1711,2.1787,2.1836,2.1932,2.2006,2.2082,2.2122,2.2137,2.2142,2.2155,2.2146,2.2126,2.2137,2.2033,2.2139,2.2139,2.2138,2.2138,2.2138,2.1275,2.1325,2.1395,2.1469,2.1521,2.1577,2.1629,2.1676,2.1741,2.1824,2.1846,2.1926,2.1991,2.2095,2.2136,2.2198,2.2193,2.2212,2.2216,2.222,2.2221,2.2117,2.2211,2.2211,2.2211,2.2211,2.2211,0,2.1356,2.1403,2.1471,2.1557,2.1614,2.1625,2.1693,2.174,2.181,2.187,2.1932,2.2019,2.2091,2.2148,2.2222,2.226,2.2268,2.2277,2.2275,2.2284,2.2221,2.2203,2.2269,2.2269,2.2269,2.2269,2.2269,2.2269,2.1406,2.1491,2.1521,2.1631,2.1677,2.1756,2.1794,2.1846,2.1894,2.1991,2.2051,2.2089,2.2147,2.2225,2.229,2.2305,2.2331,2.2338,2.2354,2.2295,2.2288,2.2282,2.2265,2.2344,2.2344,2.2412,2.2412,2.2413]}]]